St. Augustine, FL

9:17 AM EDT on April 27, 2017 (GMT -0400)
Saint Augustine

Weather History for KSGJ - July, 2014

Change the Weather History Date:

Sunday, July 13, 2014

  Actual Average Record
Temperature  
Mean Temperature 82 °F -  
Max Temperature 89 °F 86 °F 100 °F (1980)
Min Temperature 75 °F 71 °F 64 °F (1990)
Cooling Degree Days 17    
Growing Degree Days 32 (Base 50)    
Moisture  
Dew Point 75 °F    
Average Humidity 80    
Maximum Humidity 94    
Minimum Humidity 62    
Precipitation  
Precipitation 0.14 in - - ()
Sea Level Pressure  
Sea Level Pressure 30.12 in    
Wind  
Wind Speed 7 mph (SE)    
Max Wind Speed 16 mph    
Max Gust Speed -    
Visibility 9 miles    
Events Rain , Thunderstorm    
Averages and records for this station are not official NWS values.
T = Trace of Precipitation, MM = Missing Value Source: NWS Daily Summary

Daily Weather History Graph

Daily Weather History Graph

Search for Another Location

Airport or City:

Trip Planner

Search our weather history database for the weather conditions in past years. The results will help you decide how hot, cold, wet, or windy it might be!

Date:

Astronomy

Jul. 13, 2014 Rise Set
Actual Time 6:33 AM EDT 8:28 PM EDT
Civil Twilight 6:06 AM EDT 8:55 PM EDT
Nautical Twilight 5:33 AM EDT 9:27 PM EDT
Astronomical Twilight 4:59 AM EDT 10:02 PM EDT
Moon 9:27 PM EDT (7/13) 7:52 AM EDT (7/13)
Length of Visible Light 14h 48m
Length of Day
13h 55m
Full, 98% of the Moon is Illuminated
Jul 13
Full
Jul 18
Last Quarter
Jul 26
New
Aug 3
First Quarter
Aug 10
Full

Hourly Weather History & Observations

Time (EDT) Temp. Heat Index Dew Point Humidity Pressure Visibility Wind Dir Wind Speed Gust Speed Precip Events Conditions
12:52 AM 80.6 °F 86.2 °F 75.2 °F 84% 30.12 in 10.0 mi ESE 8.1 mph - N/A   Mostly Cloudy
12:58 AM 80.1 °F 85.4 °F 75.9 °F 87% 30.12 in 10.0 mi ESE 9.2 mph - N/A   Mostly Cloudy
1:50 AM 80.6 °F 86.2 °F 75.2 °F 84% 30.11 in 10.0 mi SE 8.1 mph - N/A   Scattered Clouds
1:58 AM 80.1 °F 85.1 °F 75.0 °F 85% 30.12 in 10.0 mi SE 6.9 mph - N/A   Scattered Clouds
2:58 AM 79.0 °F - 73.9 °F 84% 30.11 in 10.0 mi South 12.7 mph - N/A   Mostly Cloudy
3:03 AM 78.8 °F - 73.4 °F 83% 30.11 in 10.0 mi SSW 8.1 mph - 0.00 in Rain Light Rain
3:14 AM 77.0 °F - 71.6 °F 83% 30.10 in 10.0 mi SSW 5.8 mph - 0.03 in Rain Rain
3:58 AM 75.9 °F - 73.0 °F 91% 30.11 in 10.0 mi South 9.2 mph - 0.03 in   Scattered Clouds
4:58 AM 75.9 °F - 73.0 °F 91% 30.10 in 10.0 mi West 3.5 mph - 0.01 in   Scattered Clouds
6:58 AM 75.9 °F - 73.0 °F 91% 30.11 in 10.0 mi SW 3.5 mph - N/A   Clear
7:58 AM 77.0 °F - 73.9 °F 90% 30.13 in 10.0 mi Calm Calm - N/A   Clear
8:58 AM 84.0 °F 92.6 °F 75.9 °F 76% 30.14 in 10.0 mi West 3.5 mph - N/A   Clear
9:58 AM 87.1 °F 97.3 °F 75.9 °F 69% 30.15 in 10.0 mi Variable 4.6 mph - N/A   Partly Cloudy
10:09 AM 86.0 °F 95.1 °F 75.2 °F 70% 30.15 in 10.0 mi Variable 3.5 mph - N/A   Overcast
10:58 AM 88.0 °F 97.5 °F 75.0 °F 65% 30.14 in 10.0 mi Variable 5.8 mph - N/A   Overcast
11:02 AM 87.8 °F 97.6 °F 75.2 °F 66% 30.14 in 10.0 mi Variable 3.5 mph - N/A   Mostly Cloudy
11:19 AM 89.6 °F 99.8 °F 75.2 °F 62% 30.14 in 10.0 mi NNE 5.8 mph - N/A   Overcast
11:26 AM 87.8 °F 97.6 °F 75.2 °F 66% 30.15 in 10.0 mi ENE 8.1 mph - N/A   Mostly Cloudy
11:31 AM 87.8 °F 97.6 °F 75.2 °F 66% 30.15 in 10.0 mi NE 8.1 mph - N/A   Mostly Cloudy
11:58 AM 84.9 °F 94.1 °F 75.9 °F 74% 30.14 in 10.0 mi NNE 5.8 mph - N/A   Mostly Cloudy
12:04 PM 86.0 °F 96.9 °F 77.0 °F 74% 30.14 in 10.0 mi ENE 4.6 mph - N/A   Mostly Cloudy
1:08 PM 84.2 °F 92.3 °F 75.2 °F 74% 30.14 in 9.0 mi East 12.7 mph - N/A Thunderstorm Thunderstorm
1:25 PM 82.4 °F 89.5 °F 75.2 °F 79% 30.14 in 2.0 mi SE 16.1 mph - 0.01 in Rain , Thunderstorm Thunderstorms and Rain
1:58 PM 75.0 °F - 69.1 °F 82% 30.14 in 2.0 mi SE 9.2 mph - 0.09 in Rain , Thunderstorm Thunderstorms and Rain
2:34 PM 75.2 °F - 71.6 °F 89% 30.15 in 3.0 mi WSW 4.6 mph - 0.01 in Thunderstorm Unknown
2:52 PM 75.2 °F - 71.6 °F 89% 30.14 in 3.0 mi SSW 3.5 mph - 0.01 in Rain Light Rain
2:58 PM 77.0 °F - 73.0 °F 88% 30.14 in 3.0 mi NW 4.6 mph - 0.01 in Rain Light Rain
3:02 PM 75.2 °F - 73.4 °F 94% 30.13 in 10.0 mi Calm Calm - 0.00 in Rain Light Rain
3:58 PM 81.0 °F 87.3 °F 75.9 °F 85% 30.11 in 5.0 mi ESE 3.5 mph - 0.00 in   Haze
4:58 PM 84.9 °F 95.3 °F 77.0 °F 77% 30.10 in 6.0 mi ESE 9.2 mph - N/A   Haze
5:58 PM 84.9 °F 93.3 °F 75.0 °F 72% 30.09 in 6.0 mi East 11.5 mph - N/A   Haze
6:18 PM 84.2 °F 92.3 °F 75.2 °F 74% 30.09 in 10.0 mi ESE 10.4 mph - N/A   Mostly Cloudy
6:58 PM 82.9 °F 90.2 °F 75.0 °F 77% 30.09 in 10.0 mi ESE 8.1 mph - N/A   Scattered Clouds
7:10 PM 82.4 °F 89.5 °F 75.2 °F 79% 30.08 in 10.0 mi SE 10.4 mph - N/A   Mostly Cloudy
7:58 PM 82.0 °F 88.6 °F 75.0 °F 79% 30.09 in 10.0 mi SE 9.2 mph - N/A   Mostly Cloudy
8:56 PM 80.6 °F 86.2 °F 75.2 °F 84% 30.07 in 10.0 mi SSE 6.9 mph - N/A   Scattered Clouds
8:58 PM 80.1 °F 85.1 °F 75.0 °F 85% 30.07 in 10.0 mi SE 8.1 mph - N/A   Scattered Clouds
9:31 PM 80.6 °F 86.2 °F 75.2 °F 84% 30.09 in 10.0 mi SSE 5.8 mph - N/A   Mostly Cloudy
9:58 PM 80.1 °F 85.1 °F 75.0 °F 85% 30.11 in 10.0 mi South 5.8 mph - N/A   Mostly Cloudy
10:14 PM 80.6 °F 86.2 °F 75.2 °F 84% 30.10 in 10.0 mi South 3.5 mph - N/A   Scattered Clouds
10:58 PM 79.0 °F - 75.0 °F 88% 30.11 in 10.0 mi Calm Calm - N/A   Clear
11:58 PM 78.1 °F - 73.9 °F 87% 30.11 in 10.0 mi Calm Calm - N/A   Clear